KDUXKSKX

Guest
Details From KDUX - MOORE CO
To KSKX - Taos Rgnl
Flight Number -
Tags generated
Created
Modified
Stats Distance 197 nm / 365 km
Max Altitude 26,100 ft / 7,955 m
Waypoints 4
Social Downloads 0
Likes 0
Share VATSIM

Download

Looking for another format? Having issues loading an existing format? Contact us
Advertisement - Login to hide

Notes

Basic altitude profile: - Ascent Rate: 2500ft/min - Ascent Speed: 250kts - Cruise Altitude: 800000ft - Cruise Speed: 420kts - Descent Rate: 1500ft/min - Descent Speed: 250kts Options: - Use NATs: yes - Use PACOTS: yes - Use low airways: yes - Use high airways: no

Route

KDUX ASOYA V190 HOLSU KSKX

ID Type Via Altitude Latitude Longitude Leg Dist Tot Dist Heading (true) Name
O KDUX APT - 0 ft / 0 m 35.85827˚ -102.01300˚ - 0 nm - MOORE CO
ASOYA FIX - 26,100 ft / 7,955 m 35.93551˚ -103.51786˚ 73 nm 73 nm 274° / 273° -
HOLSU FIX V190 (AWY-LO) 12,500 ft / 3,810 m 35.72848˚ -104.73570˚ 60 nm 133 nm 259° / 258° -
O KSKX APT - 0 ft / 0 m 36.45818˚ -105.67243˚ 63 nm 197 nm 314° / 314° Taos Rgnl

Altitude Profile

Advertisement - Login to hide

Weather


0- 5 10 15 20 25 30 35+ Temperature / ° C

Clouds and Precipitation
Forecast for 2017-12-12 12:00 UTC. Updated an hour ago

Ground ~20,000 ft ~40,000 ft Winds

KDUX

Details ICAO KDUX
Name MOORE CO
Region United States
Timezone America/Chicago (UTC-6.0)
Stats Elevation 3,705 ft / 1,129 m (AMSL)
Location 35.858268° -102.012996°
Runways 2
Magnetic Variation 6.363° E

METAR

KDUX 121215Z AUTO 28006KT 10SM CLR M05/M12 A3045 RMK AO2 T10511125

Decode

TAF

Not found

Departure Runways

ID Width Length Bearing (true) Bearing (mag) Surface Threshold Offset Overrun Length
01 75 ft / 23 m 5,482 ft / 1,671 m 23.05° 16.69° Asphalt 0 ft / 0 m 0 ft / 0 m
14 60 ft / 18 m 3,103 ft / 946 m 151.67° 145.31° Asphalt 0 ft / 0 m 0 ft / 0 m
19 75 ft / 23 m 5,482 ft / 1,671 m 203.06° 196.70° Asphalt 0 ft / 0 m 0 ft / 0 m
32 60 ft / 18 m 3,103 ft / 946 m 331.67° 325.31° Asphalt 0 ft / 0 m 0 ft / 0 m

KSKX

Details ICAO KSKX
Name Taos Rgnl
Region United States
Timezone America/Denver (UTC-7.0)
Stats Elevation 7,091 ft / 2,161 m (AMSL)
Location 36.458182° -105.672425°
Runways 1
Magnetic Variation 8.255° E

METAR

KSKX 121156Z AUTO 03007KT 10SM CLR M10/M18 A3055 RMK AO2 SLP377 T11001183 11011 21106 51005 FZRANO $

Decode

TAF

Not found

Destination Runways

ID Width Length Bearing (true) Bearing (mag) Surface Threshold Offset Overrun Length
04 75 ft / 23 m 5,794 ft / 1,766 m 56.03° 47.78° Asphalt 0 ft / 0 m 0 ft / 0 m
22 75 ft / 23 m 5,794 ft / 1,766 m 236.04° 227.79° Asphalt 0 ft / 0 m 0 ft / 0 m

Popular Alternatives